Flag for Canada Weather past 2 weeks in Kenora, Ontario, Canada

Now
37 °F

Overcast.


Feels Like: 32 °F
Forecast: 36 / 55 °F
Wind: 7 mph from Southeast

Location: Kenora

Current Time: Apr 25, 2015 at 6:29:05 AM

Latest Report: Apr 25, 2015 at 6:00 AM


Visibility: 15 mi

Pressure: 30.00 "Hg

Humidity: 60%

Dew point: 25 °F

Location of KenoraLocation

Historic Weather in Kenora — Graph

°F

Kenora temperature yesterday

Maximum temperature yesterday: 46 °F (at 12:00 PM)
Minimum temperature yesterday: 30 °F (at 1:00 AM)
Average temperature yesterday: 38 °F

Past Weeks' High & Low Weather Summary

 TemperatureHumidityPressure
High70 °F (Apr 15, 4:00 PM)100% (Apr 19, 9:48 AM)30.27 "Hg (Apr 19, 9:48 AM)
Low21 °F (Apr 22, 5:00 AM)16% (Apr 18, 4:00 PM)29.40 "Hg (Apr 20, 2:00 PM)
Average42 °F53%29.89 "Hg
* Reported Apr 10 5:00 AM — Apr 25 5:00 AM, Kenora, Weather by CustomWeather, © 2015

Note: Actual official high and low records may vary slightly from our data, if they occured in-between our weather recording intervals... More about our weather records

Advertising

Kenora weather history for previous 24 hours

 ConditionsComfort  
Time TempWeatherWind HumidityBarometerVisibility
5:00 AM
Sat, Apr 25
39 °FOvercast.8 mph56%29.99 "Hg15 mi
4:00 AM39 °FOvercast.7 mph52%29.97 "Hg15 mi
3:00 AM39 °FOvercast.9 mph56%29.97 "Hg15 mi
2:00 AM39 °FOvercast.9 mph61%29.96 "Hg15 mi
1:00 AM39 °FOvercast.7 mph65%29.96 "Hg15 mi
12:00 AM39 °FOvercast.10 mph65%29.97 "Hg15 mi
11:00 PM
Fri, Apr 24
39 °FOvercast.9 mph56%29.98 "Hg15 mi
10:00 PM39 °FOvercast.8 mph52%29.98 "Hg15 mi
9:00 PM41 °FOvercast.9 mph49%29.97 "Hg15 mi
8:00 PM41 °FOvercast.8 mph45%29.96 "Hg14 mi
6:00 PM43 °FMostly cloudy.10 mph36%29.95 "Hg15 mi
5:00 PM43 °FMostly cloudy.10 mph42%29.94 "Hg15 mi
4:00 PM45 °FMostly cloudy.12 mph34%29.94 "Hg15 mi
3:00 PM45 °FPartly sunny.13 mph31%29.95 "Hg15 mi
2:00 PM46 °FMostly cloudy.13 mph29%29.95 "Hg15 mi
1:00 PM46 °FPartly sunny.9 mph29%29.95 "Hg15 mi
12:00 PM46 °FBroken clouds.12 mph25%29.96 "Hg15 mi
11:00 AM45 °FBroken clouds.9 mph29%29.97 "Hg15 mi
10:00 AM43 °FBroken clouds.12 mph34%29.99 "Hg15 mi
9:00 AM39 °FBroken clouds.12 mph42%29.99 "Hg15 mi
8:00 AM34 °FPartly sunny.8 mph51%30.00 "Hg15 mi
7:00 AM30 °FBroken clouds.8 mph59%30.01 "Hg15 mi
6:00 AM30 °FPassing clouds.8 mph55%30.01 "Hg15 mi
Weather by CustomWeather, © 2015

See weather overviewHow to use our weather pages